[[{"header":{"parameterUnit":"m.s-1","parameterCategory":1,"la1":30.2991,"la2":30.254,"lo1":-89.0895,"lo2":-89.0444,"dy":0.0017,"dx":0.0017,"nx":28,"ny":28,"refTime":"2025-12-16T09:00:00:Z","depth":0,"parameterNumber":2,"parameterNumberName":"U-component_of_WINDS"},"data":[0,0,0,0,0,0,0,0,0,0,0,0,0,0,0,0,0,0,0,0,0,0,0,0,0,0,0,0,0,0,0,0,0,0,0,0,0,0,0,0,0,0,0,0,0,0,0,0,0,0,0,0,0,0,0,0,0,0,-1.5891,-1.5891,0,-1.5949,-1.5949,-1.595,-1.5908,-1.5906,-1.5904,-1.5902,-1.5962,-1.5965,-1.5969,0,0,0,0,0,0,0,0,0,0,0,0,0,-1.5743,-1.5746,-1.5891,-1.5891,-1.5892,-1.5949,-1.5949,-1.595,-1.5908,-1.5906,-1.5904,-1.5901,-1.5961,-1.5965,-1.5969,0,0,0,0,0,0,0,0,0,0,0,0,0,-1.5805,-1.5747,-1.5891,-1.5878,-1.5877,-1.5948,-1.5949,-1.595,-1.5909,-1.5906,-1.5903,-1.59,-1.596,-1.5965,-1.5969,-1.6056,0,0,-1.5985,-1.5987,0,0,0,0,0,0,0,0,-1.5801,-1.581,-1.5879,-1.5879,-1.5878,-1.5918,-1.5919,-1.5986,-1.5909,-1.5897,-1.5902,-1.5899,-1.595,-1.5955,-1.5972,-1.6059,-1.6062,-1.5985,-1.5988,-1.599,-1.5992,0,0,0,0,0,0,0,-1.5797,-1.5808,-1.5914,-1.588,-1.588,-1.5869,-1.5875,-1.5932,-1.5938,-1.5898,-1.5895,-1.5902,-1.5949,-1.5968,-1.5974,-1.6063,-1.5985,-1.599,-1.5993,-1.5995,-1.6223,-1.6226,0,0,0,0,0,0,-1.5794,-1.5804,-1.5912,-1.5915,-1.5832,-1.5874,-1.5881,-1.5908,-1.5938,-1.5939,-1.5904,-1.59,-1.5961,-1.5968,-1.5975,-1.6079,-1.599,-1.5995,-1.5998,-1.622,-1.6224,-1.6227,0,0,0,0,0,0,-1.5791,-1.5804,-1.5909,-1.5859,-1.5872,-1.588,-1.5911,-1.5911,-1.5929,-1.5943,-1.5944,-1.5922,-1.5959,-1.5968,-1.6036,-1.6081,-1.5997,-1.6002,-1.6216,-1.6221,-1.6225,-1.6287,0,0,0,0,0,0,-1.5787,-1.5803,-1.5837,-1.586,-1.5875,-1.597,-1.5914,-1.5914,-1.5938,-1.5933,-1.596,-1.5962,-1.5957,-1.6029,-1.6041,-1.6086,-1.6006,-1.6212,-1.6218,-1.6224,-1.6281,-1.6293,-1.6304,0,0,0,0,0,-1.5782,-1.5852,-1.5839,-1.5852,-1.5916,-1.5973,-1.5981,-1.5974,-1.5942,-1.5975,-1.5984,-1.5961,-1.6073,-1.6037,-1.605,-1.6097,-1.621,-1.6217,-1.6223,-1.6276,-1.6291,-1.6304,0,0,0,0,0,0,-1.5834,-1.5855,-1.584,-1.592,-1.5945,-1.5965,-1.6007,-1.599,-1.6025,-1.6018,-1.6009,-1.6015,-1.6087,-1.6098,-1.6057,-1.6182,-1.6136,-1.6146,-1.6172,-1.6186,-1.6197,-1.6193,-1.601,0,0,0,0,0,-1.5855,-1.5898,-1.5914,-1.5983,-1.5996,-1.6,-1.6024,-1.6017,-1.6042,-1.6052,-1.6066,-1.6091,-1.6132,-1.616,-1.6198,-1.6282,-1.6287,-1.6321,-1.6332,-1.6341,-1.635,-1.6395,-1.6411,-1.625,-1.6249,-1.6249,0,0,-1.5898,-1.5915,-1.5943,-1.5994,-1.6012,-1.6058,-1.6009,-1.6059,-1.6093,-1.606,-1.6125,-1.6136,-1.6163,-1.624,-1.6274,-1.6252,-1.6396,-1.635,-1.6357,-1.6361,-1.6404,-1.6419,-1.6433,-1.6254,-1.6253,-1.6253,0,0,-1.6,-1.6017,-1.6077,-1.6096,-1.6124,-1.6126,-1.614,-1.6163,-1.6168,-1.6233,-1.6209,-1.6249,-1.632,-1.6341,-1.6361,-1.647,-1.645,-1.6482,-1.6541,-1.6585,-1.6598,-1.6609,-1.6649,-1.6663,-1.6491,-1.6491,-1.6491,0,-1.6051,-1.6119,-1.6109,-1.6162,-1.6184,-1.6156,-1.6216,-1.6234,-1.6274,-1.6291,-1.6264,-1.6353,-1.6369,-1.645,-1.6477,-1.6493,-1.6509,-1.648,-1.6597,-1.6608,-1.6619,-1.6656,-1.6671,-1.6495,-1.6494,-1.6494,-1.6494,0,-1.618,-1.6227,-1.6271,-1.631,-1.6337,-1.6393,-1.6392,-1.6421,-1.6411,-1.6415,-1.6481,-1.65,-1.6542,-1.656,-1.6551,-1.664,-1.6625,-1.6598,-1.6552,-1.6638,-1.6673,-1.6687,-1.65,-1.6499,-1.6498,-1.6497,0,0,-1.6318,-1.635,-1.6366,-1.6383,-1.6411,-1.6448,-1.6502,-1.6542,-1.6568,-1.6595,-1.664,-1.67,-1.6676,-1.6698,-1.6691,-1.6729,-1.6815,-1.6698,-1.6698,-1.6719,-1.6914,-1.6934,-1.6951,-1.6801,-1.6804,-1.6806,-1.6911,0,-1.6423,-1.6517,-1.6509,-1.6599,-1.6642,-1.6615,-1.6662,-1.6684,-1.6689,-1.6727,-1.6732,-1.6775,-1.6739,-1.6752,-1.6789,-1.6797,-1.6854,-1.6789,-1.6843,-1.6845,-1.6838,-1.6969,-1.6991,-1.7091,-1.6925,-1.6927,-1.6929,0,-1.6558,-1.659,-1.6683,-1.6704,-1.6722,-1.6765,-1.6801,-1.6837,-1.6861,-1.6862,-1.6887,-1.6872,-1.6926,-1.6878,-1.6953,-1.6909,-1.693,-1.6937,-1.6941,-1.6947,-1.6893,-1.6979,-1.7122,-1.7137,-1.695,-1.6949,-1.6947,0,-1.665,-1.6716,-1.6781,-1.6796,-1.6822,-1.6853,-1.6865,-1.6886,-1.6911,-1.6942,-1.6958,-1.6995,-1.7016,-1.7045,-1.7041,-1.7006,-1.7117,-1.7068,-1.7119,-1.712,-1.7145,-1.7144,-1.7294,-1.7158,-1.7157,-1.7157,-1.7157,0,-1.6768,-1.6827,-1.6823,-1.6863,-1.6927,-1.6917,-1.6981,-1.699,-1.7009,-1.705,-1.7028,-1.7067,-1.7059,-1.7097,-1.7094,-1.7156,-1.7165,-1.7168,-1.7167,-1.7171,-1.717,-1.7186,-1.7179,-1.7161,-1.716,-1.7159,-1.7159,0,-1.6883,-1.6883,-1.6951,-1.697,-1.6976,-1.7023,-1.7039,-1.7076,-1.7078,-1.713,-1.7142,-1.7146,-1.719,-1.7189,-1.7239,-1.7237,-1.7313,-1.7303,-1.7305,-1.7304,-1.7355,-1.7351,-1.7521,-1.7543,-1.7391,-1.7393,-1.7394,0,-1.6959,-1.7004,-1.7027,-1.7052,-1.7067,-1.7108,-1.7133,-1.7124,-1.7151,-1.7182,-1.7215,-1.7257,-1.729,-1.7362,-1.737,-1.7407,-1.7399,-1.7456,-1.7405,-1.7407,-1.7401,-1.7399,-1.7403,-1.7467,-1.7468,-1.747,-1.7471,0,-1.7095,-1.7092,-1.7128,-1.7165,-1.7195,-1.7223,-1.7249,-1.7271,-1.7265,-1.7296,-1.7341,-1.7367,-1.7417,-1.7459,-1.7495,-1.7507,-1.7489,-1.7487,-1.7501,-1.7506,-1.7505,-1.7507,-1.7334,-1.7483,-1.7482,-1.7481,-1.748,-1.748,-1.7193,-1.7231,-1.7253,-1.7294,-1.7313,-1.7337,-1.7373,-1.738,-1.7417,-1.7457,-1.745,-1.75,-1.7522,-1.7568,-1.7584,-1.7623,-1.7602,-1.7623,-1.7628,-1.7633,-1.7639,-1.7498,-1.7629,-1.7629,-1.7628,-1.7628,-1.7628,0,-1.7328,-1.734,-1.7378,-1.7415,-1.7447,-1.7425,-1.7453,-1.7481,-1.7526,-1.7548,-1.758,-1.7631,-1.7672,-1.7682,-1.772,-1.7749,-1.7742,-1.776,-1.7758,-1.7761,-1.7655,-1.7639,-1.7765,-1.7765,-1.7765,-1.7765,-1.7765,-1.7765,-1.7402,-1.7465,-1.7465,-1.7537,-1.7548,-1.7597,-1.7615,-1.7637,-1.7654,-1.7712,-1.7746,-1.7751,-1.7769,-1.7808,-1.7844,-1.7846,-1.7861,-1.7883,-1.7882,-1.7783,-1.7769,-1.7756,-1.7741,-1.7887,-1.7887,-1.7985,-1.7986,-1.7987]},{"header":{"parameterUnit":"m.s-1","parameterCategory":1,"la1":30.2991,"la2":30.254,"lo1":-89.0895,"lo2":-89.0444,"dy":0.0017,"dx":0.0017,"nx":28,"ny":28,"refTime":"2025-12-16T09:00:00:Z","depth":0,"parameterNumber":3,"parameterNumberName":"V-component_of_WINDS"},"data":[0,0,0,0,0,0,0,0,0,0,0,0,0,0,0,0,0,0,0,0,0,0,0,0,0,0,0,0,0,0,0,0,0,0,0,0,0,0,0,0,0,0,0,0,0,0,0,0,0,0,0,0,0,0,0,0,0,0,-3.9697,-3.9698,0,-3.9763,-3.9764,-3.9764,-3.9716,-3.9714,-3.9712,-3.971,-3.9773,-3.9776,-3.978,0,0,0,0,0,0,0,0,0,0,0,0,0,-3.9525,-3.9528,-3.9697,-3.9698,-3.9699,-3.9763,-3.9764,-3.9765,-3.9716,-3.9714,-3.9711,-3.9709,-3.9772,-3.9776,-3.978,0,0,0,0,0,0,0,0,0,0,0,0,0,-3.9596,-3.9529,-3.9697,-3.9683,-3.9682,-3.9763,-3.9764,-3.9765,-3.9717,-3.9714,-3.9711,-3.9708,-3.977,-3.9776,-3.9781,-3.9878,0,0,-3.9798,-3.98,0,0,0,0,0,0,0,0,-3.9592,-3.9602,-3.9684,-3.9684,-3.9683,-3.9728,-3.9726,-3.9803,-3.9718,-3.9703,-3.971,-3.9706,-3.976,-3.9766,-3.9786,-3.9881,-3.9884,-3.9798,-3.9802,-3.9804,-3.9805,0,0,0,0,0,0,0,-3.9587,-3.9599,-3.9723,-3.9685,-3.9685,-3.9671,-3.9678,-3.974,-3.9749,-3.9704,-3.9701,-3.971,-3.9759,-3.978,-3.9787,-3.9885,-3.9798,-3.9803,-3.9806,-3.9808,-4.0061,-4.0064,0,0,0,0,0,0,-3.9584,-3.9595,-3.9721,-3.9725,-3.9629,-3.9677,-3.9684,-3.9717,-3.9748,-3.975,-3.9712,-3.9707,-3.9773,-3.978,-3.9789,-3.9903,-3.9804,-3.9809,-3.9812,-4.0058,-4.0062,-4.0065,0,0,0,0,0,0,-3.9581,-3.9596,-3.9718,-3.9659,-3.9674,-3.9683,-3.972,-3.972,-3.9741,-3.9754,-3.9755,-3.9733,-3.977,-3.9781,-3.9856,-3.9904,-3.9811,-3.9816,-4.0054,-4.0059,-4.0064,-4.0133,0,0,0,0,0,0,-3.9576,-3.9595,-3.9633,-3.9661,-3.9677,-3.9786,-3.9723,-3.9723,-3.9751,-3.9745,-3.9773,-3.9775,-3.9769,-3.9848,-3.9862,-3.991,-3.9821,-4.0049,-4.0056,-4.0062,-4.0126,-4.014,-4.0151,0,0,0,0,0,-3.957,-3.965,-3.9635,-3.9651,-3.9726,-3.9789,-3.9799,-3.9791,-3.9755,-3.9792,-3.9801,-3.9774,-3.9897,-3.9856,-3.9871,-3.9922,-4.0046,-4.0054,-4.0062,-4.0121,-4.0137,-4.0151,0,0,0,0,0,0,-3.9626,-3.9653,-3.9637,-3.9729,-3.9757,-3.9781,-3.9828,-3.9809,-3.9847,-3.984,-3.9828,-3.9835,-3.9913,-3.9925,-3.9879,-4.0017,-3.9966,-3.9977,-4.0006,-4.0021,-4.0034,-4.0028,-3.9825,0,0,0,0,0,-3.965,-3.9701,-3.9721,-3.9799,-3.9814,-3.9819,-3.9846,-3.9838,-3.9867,-3.9878,-3.9892,-3.9919,-3.9964,-3.9994,-4.0036,-4.0128,-4.0132,-4.0171,-4.0183,-4.0193,-4.0202,-4.025,-4.0266,-4.0091,-4.0091,-4.0091,0,0,-3.9698,-3.9719,-3.9751,-3.9811,-3.9832,-3.9883,-3.9829,-3.9886,-3.9923,-3.9886,-3.9958,-3.9969,-3.9999,-4.0083,-4.012,-4.0095,-4.0252,-4.0203,-4.0211,-4.0215,-4.026,-4.0276,-4.0291,-4.0096,-4.0095,-4.0094,0,0,-3.9811,-3.9833,-3.99,-3.9923,-3.9956,-3.9958,-3.9974,-4.0001,-4.0007,-4.0079,-4.0052,-4.0095,-4.0173,-4.0195,-4.0216,-4.0337,-4.0313,-4.0351,-4.0416,-4.0462,-4.0476,-4.0488,-4.0529,-4.0545,-4.036,-4.0361,-4.0361,0,-3.9866,-3.9944,-3.9937,-3.9996,-4.0021,-3.9992,-4.0058,-4.008,-4.0124,-4.0142,-4.0114,-4.021,-4.0228,-4.0315,-4.0345,-4.0364,-4.038,-4.0347,-4.0475,-4.0487,-4.0498,-4.0537,-4.0553,-4.0365,-4.0364,-4.0364,-4.0364,0,-4.0009,-4.0063,-4.0113,-4.0158,-4.019,-4.0252,-4.0252,-4.0285,-4.0274,-4.0279,-4.0352,-4.0372,-4.0417,-4.0437,-4.0427,-4.0523,-4.0506,-4.0477,-4.0425,-4.052,-4.0556,-4.0571,-4.0371,-4.037,-4.0368,-4.0367,0,0,-4.0159,-4.0199,-4.0218,-4.0237,-4.0271,-4.0311,-4.0372,-4.0417,-4.0444,-4.0476,-4.0524,-4.0591,-4.0563,-4.0587,-4.0579,-4.0621,-4.0712,-4.0586,-4.0586,-4.0607,-4.0817,-4.0837,-4.0855,-4.0697,-4.07,-4.0702,-4.0814,0,-4.0273,-4.0379,-4.0374,-4.0473,-4.0521,-4.0493,-4.0545,-4.0571,-4.0577,-4.0618,-4.0624,-4.067,-4.0632,-4.0646,-4.0686,-4.0693,-4.0754,-4.0685,-4.074,-4.0742,-4.0732,-4.0874,-4.0896,-4.1,-4.0828,-4.083,-4.0832,0,-4.042,-4.0457,-4.0561,-4.0587,-4.0607,-4.0654,-4.0694,-4.0734,-4.0761,-4.0763,-4.079,-4.0774,-4.0833,-4.0781,-4.0861,-4.0814,-4.0836,-4.0843,-4.0847,-4.085,-4.0791,-4.0879,-4.1033,-4.1048,-4.0855,-4.0853,-4.0851,0,-4.0516,-4.0593,-4.0664,-4.0682,-4.0714,-4.0747,-4.0762,-4.0787,-4.0813,-4.0848,-4.0865,-4.0906,-4.0927,-4.0958,-4.0953,-4.0917,-4.1034,-4.0982,-4.1034,-4.1034,-4.1059,-4.1057,-4.1216,-4.1077,-4.1076,-4.1076,-4.1076,0,-4.0642,-4.0706,-4.0708,-4.0752,-4.0822,-4.0815,-4.0884,-4.0894,-4.0916,-4.096,-4.0939,-4.098,-4.0972,-4.1013,-4.101,-4.1074,-4.1085,-4.1086,-4.1084,-4.1087,-4.1086,-4.11,-4.1091,-4.108,-4.1079,-4.1078,-4.1078,0,-4.0761,-4.0765,-4.0841,-4.0865,-4.0873,-4.0923,-4.0943,-4.0983,-4.0988,-4.1044,-4.1056,-4.1063,-4.1109,-4.1108,-4.1161,-4.1159,-4.1238,-4.1228,-4.1229,-4.1226,-4.1278,-4.1272,-4.145,-4.1471,-4.132,-4.1321,-4.1322,0,-4.0841,-4.0889,-4.0919,-4.0948,-4.0965,-4.1011,-4.1038,-4.1033,-4.1062,-4.1096,-4.1132,-4.1177,-4.1213,-4.1288,-4.1296,-4.1336,-4.1326,-4.1386,-4.1332,-4.1333,-4.1324,-4.132,-4.1324,-4.1395,-4.1397,-4.1399,-4.14,0,-4.098,-4.098,-4.1021,-4.1063,-4.1096,-4.1129,-4.1158,-4.1183,-4.118,-4.1213,-4.1262,-4.1289,-4.1343,-4.1387,-4.1426,-4.1438,-4.1418,-4.1417,-4.1431,-4.1433,-4.143,-4.143,-4.1255,-4.1412,-4.1411,-4.141,-4.141,-4.1409,-4.108,-4.1121,-4.1149,-4.1195,-4.1217,-4.1245,-4.1284,-4.1293,-4.1334,-4.1378,-4.1372,-4.1425,-4.145,-4.1499,-4.1516,-4.1556,-4.1534,-4.1555,-4.156,-4.1564,-4.1569,-4.1426,-4.1563,-4.1562,-4.1562,-4.1562,-4.1562,0,-4.1216,-4.1233,-4.1275,-4.1318,-4.1354,-4.1334,-4.1365,-4.1396,-4.1443,-4.1469,-4.1505,-4.1559,-4.1601,-4.1613,-4.1653,-4.1683,-4.1674,-4.1694,-4.169,-4.1693,-4.1587,-4.157,-4.17,-4.17,-4.17,-4.17,-4.17,-4.1699,-4.1291,-4.136,-4.1362,-4.144,-4.1455,-4.1508,-4.1528,-4.1553,-4.1573,-4.1635,-4.1671,-4.1679,-4.1698,-4.1739,-4.1777,-4.1779,-4.1794,-4.1816,-4.1814,-4.1715,-4.1701,-4.1687,-4.1671,-4.182,-4.182,-4.1916,-4.1917,-4.1918]}]]